Location: Unspecified
(0.0000°N, 0.0000°E)
Time: 23:34:09
(UTC+00:00)

Altair 2 - Pass Details

Date: 06 November 2024
Orbit: 1017 x 1126 km, 90.0° (Epoch: 06 December)

Event Time Altitude Azimuth Distance (km) Brightness Sun altitude
Exits shadow 02:45:02 23° 162° (SSE) 2,153 10.5 -42.5°
Drops below altitude 10° 02:47:27 10° 170° (S) 2,966 11.3 -41.9°
Sets 02:50:04 0° 174° (S) 3,912 11.9 -41.3°
